Prescott, AZ

2:07 PM MST on December 06, 2019 (GMT -0700)
Love

Weather History for KPRC - October, 2019

Change the Weather History Date:

Wednesday, October 30, 2019

  Actual Average Record
Temperature  
Mean Temperature 36 °F 52 °F  
Max Temperature 52 °F 67 °F 78 °F (1975)
Min Temperature 19 °F 37 °F 18 °F (1971)
Degree Days  
Heating Degree Days 30    
Month to date heating degree days 268  
Since 1 July heating degree days 295  
Cooling Degree Days 0    
Month to date cooling degree days 0  
Year to date cooling degree days 1130  
Moisture  
Dew Point -10 °F    
Average Humidity 18    
Maximum Humidity 34    
Minimum Humidity 4    
Precipitation  
Precipitation 0.00 in 0.03 in 0.97 in (1951)
Month to date precipitation 0.00 0.89  
Year to date precipitation 10.29 12.06  
Sea Level Pressure  
Sea Level Pressure 30.21 in    
Wind  
Wind Speed 10 mph ()    
Max Wind Speed 22 mph    
Max Gust Speed 26 mph    
Visibility 10.0 miles    
Events      
T = Trace of Precipitation, MM = Missing Value Source: Averaged Metar Reports

Daily Weather History Graph

Daily Weather History Graph

Search for Another Location

Airport or City:

Astronomy

Oct. 30, 2019 Rise Set
Actual Time 6:48 AM MST 5:37 PM MST
Civil Twilight 6:22 AM MST 6:03 PM MST
Nautical Twilight 5:52 AM MST 6:33 PM MST
Astronomical Twilight 5:23 AM MST 7:02 PM MST
Moon 9:30 AM MST (10/30) 7:54 PM MST (10/30)
Length of Visible Light 11h 41m
Length of Day
10h 49m
Waxing Crescent, 9% of the Moon is Illuminated
Oct 30
Waxing Crescent
Nov 4
First Quarter
Nov 12
Full
Nov 19
Last Quarter
Nov 26
New

Hourly Weather History & Observations

Time (MST) Temp. Windchill Dew Point Humidity Pressure Visibility Wind Dir Wind Speed Gust Speed Precip Events Conditions
12:53 AM 30.9 °F 19.4 °F 3.0 °F 31% 30.04 in 10.0 mi NNW 17.3 mph - N/A   Clear
1:53 AM 28.0 °F 17.0 °F 3.0 °F 34% 30.06 in 10.0 mi NNW 13.8 mph 23.0 mph N/A   Clear
2:53 AM 26.1 °F 16.8 °F -0.0 °F 32% 30.10 in 10.0 mi NNW 9.2 mph - N/A   Clear
3:53 AM 25.0 °F 12.2 °F -2.9 °F 30% 30.12 in 10.0 mi North 16.1 mph - N/A   Clear
4:53 AM 21.9 °F 10.4 °F -5.1 °F 30% 30.17 in 10.0 mi NW 11.5 mph - N/A   Clear
5:53 AM 23.0 °F 13.9 °F -5.1 °F 29% 30.19 in 10.0 mi West 8.1 mph - N/A   Clear
6:53 AM 19.9 °F 8.6 °F -7.1 °F 30% 30.21 in 10.0 mi NW 10.4 mph - N/A   Clear
7:53 AM 26.1 °F 15.6 °F -8.0 °F 22% 30.22 in 10.0 mi WNW 11.5 mph - N/A   Clear
9:53 AM 36.0 °F 27.1 °F -13.0 °F 12% 30.22 in 10.0 mi North 13.8 mph - N/A   Clear
10:53 AM 43.0 °F 35.4 °F -17.0 °F 7% 30.21 in 10.0 mi NNE 16.1 mph 21.9 mph N/A   Clear
11:53 AM 46.9 °F - -18.9 °F 6% 30.19 in 10.0 mi NNE 19.6 mph - N/A   Clear
12:53 PM 48.9 °F - -18.9 °F 5% 30.19 in 10.0 mi North 16.1 mph 24.2 mph N/A   Clear
1:53 PM 50.0 °F - -18.9 °F 5% 30.18 in 10.0 mi NNE 11.5 mph - N/A   Clear
2:53 PM 52.0 °F - -20.0 °F 5% 30.19 in 10.0 mi Variable 5.8 mph 18.4 mph N/A   Clear
3:53 PM 51.1 °F - -17.0 °F 6% 30.21 in 10.0 mi ENE 5.8 mph - N/A   Clear
4:53 PM 48.0 °F - -14.1 °F 7% 30.24 in 10.0 mi SE 9.2 mph - N/A   Clear
5:53 PM 43.0 °F 38.2 °F -11.0 °F 10% 30.27 in 10.0 mi SSE 8.1 mph - N/A   Clear
6:53 PM 41.0 °F 35.2 °F -9.0 °F 12% 30.30 in 10.0 mi SE 9.2 mph - N/A   Clear
7:53 PM 34.0 °F 28.8 °F -9.0 °F 16% 30.31 in 10.0 mi NW 5.8 mph - N/A   Clear
8:53 PM 28.9 °F 22.8 °F -9.0 °F 19% 30.32 in 10.0 mi NW 5.8 mph - N/A   Clear
9:53 PM 27.0 °F 23.0 °F -6.0 °F 24% 30.34 in 10.0 mi SSW 3.5 mph - N/A   Clear
10:53 PM 30.0 °F 24.1 °F -9.9 °F 17% 30.30 in 10.0 mi WNW 5.8 mph - N/A   Clear
11:53 PM 26.1 °F 21.9 °F -8.0 °F 22% 30.31 in 10.0 mi WSW 3.5 mph - N/A   Clear